TimeCST,TemperatureF,Dew PointF,Humidity,Sea Level PressureIn,VisibilityMPH,Wind Direction,Wind SpeedMPH,Gust SpeedMPH,PrecipitationIn,Events,Conditions,WindDirDegrees,DateUTC
12:50 AM,50.0,33.8,54,30.31,10.0,NNE,4.6,-,N/A,,Mostly Cloudy,20,2013-12-28 06:50:00
1:50 AM,50.0,33.8,54,30.29,10.0,North,4.6,-,N/A,,Overcast,350,2013-12-28 07:50:00
2:50 AM,50.0,33.8,54,30.28,10.0,Calm,Calm,-,N/A,,Mostly Cloudy,0,2013-12-28 08:50:00
3:50 AM,50.0,33.8,54,30.27,10.0,NNE,3.5,-,N/A,,Overcast,20,2013-12-28 09:50:00
4:50 AM,50.0,33.8,54,30.24,10.0,NE,5.8,-,N/A,,Overcast,40,2013-12-28 10:50:00
5:50 AM,48.2,33.8,58,30.25,10.0,Calm,Calm,-,N/A,,Mostly Cloudy,0,2013-12-28 11:50:00
6:50 AM,48.2,33.8,58,30.23,10.0,NE,4.6,-,N/A,,Mostly Cloudy,50,2013-12-28 12:50:00
7:50 AM,48.2,33.8,58,30.24,10.0,Calm,Calm,-,N/A,,Overcast,0,2013-12-28 13:50:00
8:50 AM,50.0,35.6,58,30.26,10.0,North,3.5,-,N/A,,Overcast,350,2013-12-28 14:50:00
9:50 AM,51.8,35.6,54,30.26,10.0,NNE,3.5,-,N/A,,Overcast,20,2013-12-28 15:50:00
10:50 AM,55.4,37.4,51,30.24,10.0,Calm,Calm,-,N/A,,Overcast,0,2013-12-28 16:50:00
11:50 AM,57.2,37.4,48,30.21,10.0,Calm,Calm,-,N/A,,Overcast,0,2013-12-28 17:50:00
12:50 PM,57.2,37.4,48,30.18,10.0,Calm,Calm,-,N/A,,Overcast,0,2013-12-28 18:50:00
1:50 PM,59.0,39.2,48,30.12,10.0,Variable,3.5,-,N/A,,Mostly Cloudy,0,2013-12-28 19:50:00
2:50 PM,60.8,39.2,45,30.20,10.0,Calm,Calm,-,N/A,,Mostly Cloudy,0,2013-12-28 20:50:00
3:50 PM,62.6,39.2,42,30.09,10.0,Calm,Calm,-,N/A,,Mostly Cloudy,0,2013-12-28 21:50:00
4:50 PM,66.2,39.2,37,30.08,10.0,Calm,Calm,-,N/A,,Scattered Clouds,0,2013-12-28 22:50:00
5:50 PM,60.8,35.6,39,30.07,10.0,East,3.5,-,N/A,,Scattered Clouds,100,2013-12-28 23:50:00
6:50 PM,53.6,35.6,51,30.08,10.0,Calm,Calm,-,N/A,,Scattered Clouds,0,2013-12-29 00:50:00
7:50 PM,50.0,35.6,58,30.07,10.0,Calm,Calm,-,N/A,,Scattered Clouds,0,2013-12-29 01:50:00
8:50 PM,48.2,35.6,62,30.08,10.0,Calm,Calm,-,N/A,,Scattered Clouds,0,2013-12-29 02:50:00
9:50 PM,48.2,35.6,62,30.08,10.0,Calm,Calm,-,N/A,,Scattered Clouds,0,2013-12-29 03:50:00
10:50 PM,46.4,35.6,66,30.06,10.0,Calm,Calm,-,N/A,,Partly Cloudy,0,2013-12-29 04:50:00
11:50 PM,46.4,39.2,76,30.06,10.0,Calm,Calm,-,N/A,,Partly Cloudy,0,2013-12-29 05:50:00